This is the latest recevied weather packets stored in our database for station/object KC4JIR. If no packets are shown the sender has not sent any weather packets the latest 10 day(s).
| Time | Temp. | Humidity | Pressure | Rain* | Wind** | Luminosity | Snow |
|---|---|---|---|---|---|---|---|
| 1777674640 | 19.44° C | 75% | 1009.3 hPa | 0 mm | - | 88 W/m² | - |
| 1777674339 | 19.44° C | 75% | 1009.3 hPa | 0 mm | - | 88 W/m² | - |
| 1777674034 | 19.44° C | 75% | 1009.5 hPa | 0 mm | - | 88 W/m² | - |
| 1777673729 | 20° C | 74% | 1009.4 hPa | 0 mm | - | 69 W/m² | - |
| 1777673427 | 20° C | 74% | 1009.3 hPa | 0 mm | - | 66 W/m² | - |
| 1777673125 | 20° C | 73% | 1009.5 hPa | 0 mm | - | 65 W/m² | - |
| 1777672821 | 20° C | 72% | 1009.1 hPa | 0 mm | - | 50 W/m² | - |
| 1777672517 | 20° C | 72% | 1009.4 hPa | 0 mm | - | 57 W/m² | - |
| 1777672213 | 20° C | 75% | 1009.3 hPa | 0 mm | - | 70 W/m² | - |
| 1777671909 | 20° C | 70% | 1009.4 hPa | 0 mm | - | 83 W/m² | - |
| 1777671604 | 20° C | 72% | 1009.1 hPa | 0 mm | - | 85 W/m² | - |
| 1777671301 | 20° C | 73% | 1008.9 hPa | 0 mm | - | 92 W/m² | - |
| 1777670996 | 20° C | 72% | 1009.4 hPa | 0 mm | - | 74 W/m² | - |
| 1777670693 | 20.56° C | 73% | 1009.7 hPa | 0 mm | - | 90 W/m² | - |
| 1777670390 | 20.56° C | 71% | 1009.7 hPa | 0 mm | - | 57 W/m² | - |
| 1777670088 | 20.56° C | 72% | 1009.8 hPa | 0 mm | - | 75 W/m² | - |
| 1777669785 | 20.56° C | 77% | 1009.6 hPa | 0 mm | - | 88 W/m² | - |
| 1777669481 | 21.11° C | 77% | 1009.9 hPa | 0 mm | - | 71 W/m² | - |
| 1777669178 | 21.11° C | 70% | 1010 hPa | 0 mm | - | 76 W/m² | - |
| 1777668875 | 21.11° C | 70% | 1010.2 hPa | 0 mm | - | 98 W/m² | - |
| 1777668572 | 20.56° C | 74% | 1010.3 hPa | 0 mm | - | 119 W/m² | - |
| 1777668268 | 20.56° C | 74% | 1009.9 hPa | 0 mm | - | 119 W/m² | - |
| 1777667964 | 21.11° C | 69% | 1010.3 hPa | 0 mm | - | 125 W/m² | - |
| 1777667661 | 21.11° C | 69% | 1010.3 hPa | 0 mm | - | 125 W/m² | - |
| 1777667359 | 21.11° C | 69% | 1010.1 hPa | 0 mm | - | 118 W/m² | - |
* Rain latest hour (hover to see other rain measurements)
** Current wind speed in m/s (hover to see current wind gust speed)